Flag for Guinea Weather past 2 weeks in Boké, Guinea

Now
82 °F

Scattered clouds.


Feels Like: 89 °F
Forecast: 74 / 101 °F
Wind: 7 mph from Northwest

Location: Conakry / Gbessia

Current Time: May 3, 2015 at 10:07:19 AM

Latest Report: May 3, 2015 at 9:00 AM


Visibility: N/A

Pressure: 29.86 "Hg

Humidity: 79%

Dew point: 75 °F

Location of BokéLocation

Historic Weather in Boké — Graph

°F

Boké temperature yesterday

Maximum temperature yesterday: 91 °F (at 1:00 PM)
Minimum temperature yesterday: 79 °F (at 2:00 AM)
Average temperature yesterday: 84 °F

Past Weeks' High & Low Weather Summary

 TemperatureHumidityPressure
High91 °F (Apr 21, 2:00 PM)100% (Apr 23, 4:00 AM)32.55 "Hg (Apr 23, 4:00 AM)
Low73 °F (Apr 26, 11:00 PM)26% (Apr 22, 5:00 PM)29.74 "Hg (Apr 30, 5:00 PM)
Average83 °F71%29.88 "Hg
* Reported Apr 18 9:00 AM — May 3 9:00 AM, Boké, Weather by CustomWeather, © 2015

Note: Actual official high and low records may vary slightly from our data, if they occured in-between our weather recording intervals... More about our weather records

Advertising

Boké weather history for previous 24 hours

 ConditionsComfort  
Time TempWeatherWind HumidityBarometerVisibility
9:00 AM
Sun, May 3
82 °FScattered clouds.7 mph79%29.86 "HgN/A
8:00 AM81 °FScattered clouds.9 mph84%29.83 "HgN/A
7:00 AM79 °FPartly sunny.2 mph94%29.86 "HgN/A
6:00 AM79 °FPassing clouds.No wind94%29.83 "HgN/A
5:00 AM79 °FPassing clouds.2 mph94%29.83 "HgN/A
4:00 AM79 °FPassing clouds.7 mph94%29.86 "HgN/A
3:00 AM81 °FClear.5 mph89%29.86 "Hg10 mi
2:00 AM81 °FClear.2 mph84%29.83 "Hg10 mi
1:00 AM81 °FClear.7 mph79%29.86 "Hg10 mi
12:00 AM82 °FClear.9 mph74%29.86 "Hg10 mi
11:00 PM
Sat, May 2
82 °FClear.2 mph70%29.89 "Hg10 mi
10:00 PM82 °FPassing clouds.9 mph79%29.89 "HgN/A
9:00 PM82 °FPassing clouds.14 mph79%29.89 "HgN/A
8:00 PM82 °FClear.7 mph79%29.86 "Hg10 mi
7:00 PM82 °FScattered clouds.9 mph79%29.83 "HgN/A
6:00 PM86 °FScattered clouds.14 mph62%29.80 "HgN/A
5:00 PM86 °FPartly sunny.14 mph62%29.80 "HgN/A
4:00 PM91 °FSunny.14 mph56%29.80 "Hg10 mi
3:00 PM91 °FSunny.12 mph49%29.83 "Hg10 mi
2:00 PM86 °FSunny.12 mph66%29.83 "Hg10 mi
1:00 PM91 °FSunny.12 mph49%29.86 "Hg10 mi
12:00 PM90 °FSunny.7 mph52%29.89 "Hg10 mi
11:00 AM90 °FSunny.7 mph43%29.89 "Hg10 mi
10:00 AM88 °FSunny.9 mph52%29.86 "Hg10 mi
Weather by CustomWeather, © 2015

See weather overviewHow to use our weather pages